Regional Weather Roundup
Issued by NWS

Home | Current Version | Previous Version | Graphics & Text | Print | Product List | Glossary Off
Versions: 1 2 3 4 5 6 7 8 9 10 11 12 13 14 15 16 17 18 19 20 21 22 23 24 25 26 27 28 29 30 31 32 33 34 35 36 37 38 39 40 41 42 43 44 45 46 47 48 49 50

000
ASUS43 KTOP 151608
RWRKS

WEATHER ROUNDUP FOR KANSAS
NATIONAL WEATHER SERVICE GOODLAND KS
1100 AM CDT TUE APR 15 2014

NOTE:  "FAIR" INDICATES FEW OR NO CLOUDS BELOW 12,000 FEET WITH NO
SIGNIFICANT WEATHER AND/OR OBSTRUCTIONS TO VISIBILITY.

KSZ001>006-013>018-027>032-041>047-151700-
NORTHWEST KANSAS

CITY           SKY/WX    TMP DP  RH WIND       PRES   REMARKS
GOODLAND       SUNNY     50  23  34 SW20      30.00F
HAYS           SUNNY     52  19  28 SW16G23   30.11F
HILL CITY      SUNNY     53  13  20 SW18G25   30.07F
RUSSELL        SUNNY     49  18  29 SW12      30.12F
$$

KSZ061>065-074>080-084>089-151700-
SOUTHWEST KANSAS

CITY           SKY/WX    TMP DP  RH WIND       PRES   REMARKS
DODGE CITY     SUNNY     50  15  24 SW14G23   30.14F
ELKHART          N/A     47  22  37 SW18        N/A
GARDEN CITY    SUNNY     49  24  37 SW22G29   30.10F
GREAT BEND     SUNNY     50  19  29 SW14      30.14F
LIBERAL        SUNNY     50  28  43 SW24G31   30.15F
PRATT          SUNNY     52  18  25 W10       30.17F
$$

KSZ066>073-081>083-090>101-151700-
SOUTHEAST KANSAS

CITY           SKY/WX    TMP DP  RH WIND       PRES   REMARKS
CHANUTE        SUNNY     46  22  38 VRB3      30.23S
COFFEYVILLE    SUNNY     48  26  42 CALM      30.25R
HUTCHINSON     SUNNY     49  21  33 SW8       30.18F
MEDICINE LODGE   N/A     54  15  21 SW6       30.18F
NEWTON         SUNNY     46  18  31 S8        30.22S
PARSONS        SUNNY     48  25  40 CALM      30.25R
WICHITA INTL   SUNNY     48  23  37 VRB5      30.20F
WICHITA JABRA  SUNNY     47  23  38 S8        30.20F
WINFIELD       SUNNY     50  26  39 VRB5      30.23F
$$

KSZ007>012-019>026-033>040-048>060-102>105-151700-
NORTHEAST KANSAS

CITY           SKY/WX    TMP DP  RH WIND       PRES   REMARKS
CONCORDIA      SUNNY     47  21  35 SE14      30.14F
EMPORIA        SUNNY     45  20  36 CALM      30.20S
LAWRENCE       SUNNY     44  23  43 VRB3      30.22F
MANHATTAN      SUNNY     46  25  43 VRB5      30.19F
OLATHE IND     MOSUNNY   43  22  43 NW7       30.22F
OLATHE EXE     MOSUNNY   40  20  44 W8        30.22R
SALINA         SUNNY     47  23  38 SE10      30.18F
TOPEKA BILLARD SUNNY     45  25  45 S6        30.21F
TOPEKA FORBES  SUNNY     45  23  42 CALM      30.20F
$$



USA.gov is the U.S. government's official web portal to all federal, state and local government web resources and services.